Weather History for Williston, ND

Change the Weather History Date:

Tuesday, April 2, 2013

  Actual Average Record
Temperature  
Mean Temperature 32 °F 38 °F  
Max Temperature 45 °F 50 °F 78 °F (1991)
Min Temperature 19 °F 25 °F -15 °F (1975)
Degree Days  
Heating Degree Days 33 27  
Month to date heating degree days 73 55  
Since 1 July heating degree days 8111 7930  
Cooling Degree Days 0 0  
Month to date cooling degree days 0 0  
Year to date cooling degree days 0 0  
Moisture  
Dew Point 23 °F    
Average Humidity 75    
Maximum Humidity 100    
Minimum Humidity 49    
Precipitation  
Precipitation 0.00 in 0.03 in 0.46 in (1963)
Month to date precipitation 0.00 0.05  
Year to date precipitation 1.99 1.74  
Sea Level Pressure  
Sea Level Pressure 30.22 in    
Wind  
Wind Speed 6 mph (East)    
Max Wind Speed 14 mph    
Max Gust Speed -    
Visibility 9 miles    
Events      
T = Trace of Precipitation, MM = Missing Value Source: NWS Daily Summary

Daily Weather History Graph

Daily Weather History Graph

Search for Another Location

Airport:

Trip Planner

Search our weather history database for the weather conditions in past years. The results will help you decide how hot, cold, wet, or windy it might be!

Date:

Astronomy

Apr. 02, 2013 Rise Set
Actual Time 7:30 AM CDT 8:26 PM CDT
Civil Twilight 6:58 AM CDT 8:58 PM CDT
Nautical Twilight 6:20 AM CDT 9:36 PM CDT
Astronomical Twilight 5:40 AM CDT 10:16 PM CDT
Moon 2:52 AM CDT (4/2) 12:05 PM CDT (4/2)
Length of Visible Light 14h 00m
Length of Day
12h 56m
Waning Gibbous, 55% of the Moon is Illuminated
Apr 2
Waning Gibbous
Apr 2
Last Quarter
Apr 10
New
Apr 18
First Quarter
Apr 25
Full

Hourly Weather History & Observations

Time (CDT) Temp. Windchill Dew Point Humidity Pressure Visibility Wind Dir Wind Speed Gust Speed Precip Events Conditions
12:52 AM 21.9 °F - 21.0 °F 96% 30.28 in 10.0 mi Calm Calm - N/A   Clear
1:52 AM 21.9 °F - 19.9 °F 92% 30.28 in 9.0 mi Calm Calm - N/A   Clear
2:52 AM 21.2 °F - 19.4 °F 93% 30.19 in 8.0 mi Calm Calm - N/A   Clear
3:52 AM 19.9 °F - 19.0 °F 96% 30.28 in 8.0 mi Calm Calm - N/A   Clear
4:52 AM 19.9 °F 14.9 °F 19.0 °F 96% 30.28 in 7.0 mi ENE 3.5 mph - N/A   Clear
5:52 AM 19.9 °F 13.4 °F 18.0 °F 92% 30.28 in 7.0 mi NNE 4.6 mph - N/A   Clear
6:52 AM 19.0 °F 11.1 °F 18.0 °F 96% 30.30 in 7.0 mi NNE 5.8 mph - N/A   Clear
7:52 AM 19.9 °F 13.4 °F 18.0 °F 92% 30.31 in 5.0 mi NNE 4.6 mph - N/A   Clear
8:52 AM 19.9 °F 13.4 °F 18.0 °F 92% 30.32 in 6.0 mi NE 4.6 mph - N/A   Clear
9:52 AM 23.0 °F 17.0 °F 21.0 °F 92% 30.32 in 6.0 mi North 4.6 mph - N/A   Clear
10:52 AM 26.1 °F - 23.0 °F 88% 30.32 in 8.0 mi Calm Calm - N/A   Clear
11:52 AM 32.0 °F 25.6 °F 24.8 °F 75% 30.22 in 10.0 mi ESE 6.9 mph - N/A   Clear
12:52 PM 33.8 °F 25.3 °F 23.0 °F 65% 30.21 in 10.0 mi SE 11.5 mph - N/A   Clear
1:52 PM 36.0 °F 27.1 °F 25.0 °F 64% 30.27 in 10.0 mi SSE 13.8 mph - N/A   Clear
2:52 PM 39.0 °F 31.4 °F 24.1 °F 55% 30.24 in 10.0 mi SE 12.7 mph - N/A   Clear
3:52 PM 41.0 °F 35.8 °F 26.1 °F 55% 30.21 in 10.0 mi SE 8.1 mph - N/A   Clear
4:52 PM 43.0 °F 36.8 °F 25.0 °F 49% 30.18 in 10.0 mi SE 11.5 mph - N/A   Clear
5:52 PM 45.0 °F 39.3 °F 26.1 °F 48% 30.16 in 10.0 mi SE 11.5 mph - N/A   Clear
6:52 PM 41.0 °F 34.7 °F 30.0 °F 65% 30.14 in 10.0 mi East 10.4 mph - N/A   Clear
7:52 PM 37.0 °F 31.0 °F 28.9 °F 73% 30.13 in 10.0 mi ESE 8.1 mph - N/A   Clear
8:52 PM 35.1 °F 30.1 °F 28.0 °F 76% 30.12 in 10.0 mi East 5.8 mph - N/A   Clear
9:52 PM 34.0 °F 28.0 °F 27.0 °F 75% 30.09 in 10.0 mi ESE 6.9 mph - N/A   Clear
10:52 PM 34.0 °F 28.0 °F 27.0 °F 75% 30.07 in 10.0 mi SE 6.9 mph - N/A   Clear
11:52 PM 37.0 °F 31.0 °F 26.1 °F 65% 30.03 in 10.0 mi South 8.1 mph - N/A   Clear